Lid_Strength_Index
3 7 8 8 12 13 15 14 11 11 10 9 8 8 9 8 10 12 10 6 2 1 -0 -0 -1 -1 -1 -1 -1 -1 -1 -1 -1 -1 -1 -1 -1 -1 -1 -1 -1 -1 -1 -1 -1 -1 -1 -1 -1
5 7 7 10 14 18 17 14 13 11 9 11 11 11 11 10 12 11 8 5 1 1 0 -0 -0 -1 -1 -1 -1 -1 -1 -1 -1 -1 -1 -1 -1 -1 -1 -1 -1 -1 -1 -1 -1 -1 -1 -1 -1
9 7 8 11 15 16 16 14 13 11 10 10 11 12 11 11 13 11 8 4 3 3 1 -0 -1 -1 -1 -1 -1 -1 -1 -1 -1 -1 -1 -1 -1 -1 -1 0 0 -0 -0 -1 -1 -1 -1 -1 -1
10 8 9 12 14 13 14 13 12 10 10 9 11 11 14 12 12 11 6 5 4 4 2 -0 -1 -1 -1 -1 -1 -1 -1 -0 -0 -0 1 1 1 0 0 1 1 1 0 -0 0 0 0 0 0
9 10 12 14 13 11 11 11 10 10 10 10 11 11 13 13 12 8 6 5 5 5 3 1 -1 -1 -1 -1 -1 -0 0 1 1 1 1 0 1 1 1 1 1 1 1 0 0 1 1 1 0
11 11 14 16 14 11 10 9 10 10 10 10 12 13 12 13 11 8 8 8 6 5 4 3 1 -0 -1 -1 -0 0 1 1 1 1 1 1 2 2 2 2 1 1 1 1 1 1 1 2 1
11 13 14 14 13 12 11 9 10 9 10 9 11 12 13 14 12 10 9 9 8 7 6 6 5 2 0 -0 -0 0 1 1 2 2 2 2 3 3 3 2 2 2 2 2 2 2 2 2 3
11 12 14 14 13 13 9 10 10 9 9 11 10 11 11 13 13 11 11 11 11 9 8 8 7 5 5 4 1 1 1 2 2 2 3 3 3 3 4 3 3 3 3 3 3 3 3 4 4
11 14 14 13 13 11 12 12 12 12 11 12 11 12 14 13 13 13 14 14 13 12 11 9 8 7 7 7 5 3 2 2 3 3 4 6 8 8 7 4 4 4 4 4 3 3 4 5 6
13 15 14 11 11 13 14 15 14 15 14 14 14 15 14 14 14 13 14 14 14 14 13 11 10 10 10 7 7 8 7 7 8 9 9 9 9 8 8 6 5 5 5 5 4 5 6 7 9
15 15 14 13 14 14 15 15 15 16 15 13 13 14 15 15 15 14 13 13 13 13 13 12 10 11 11 10 9 10 9 10 9 10 9 9 9 10 10 10 10 10 8 9 9 9 9 10 10
16 13 13 12 14 15 16 16 16 15 13 12 13 14 15 15 15 14 14 14 15 14 12 12 11 11 11 11 10 10 10 10 10 10 9 10 11 11 11 11 11 11 10 11 10 10 10 10 10
15 14 14 14 15 16 16 16 16 16 13 13 14 14 15 14 14 14 14 14 15 14 13 12 12 12 11 12 11 11 11 11 10 11 10 10 11 11 11 11 11 11 11 11 11 11 10 10 10
15 15 15 15 16 17 17 17 18 14 13 14 15 15 15 14 14 15 16 15 14 13 12 12 12 12 12 12 12 11 11 11 11 11 10 10 10 11 11 11 11 11 11 11 11 11 11 11 11
16 17 16 16 15 17 18 18 19 14 15 15 15 15 16 15 14 14 14 13 13 13 12 12 12 12 12 12 12 11 11 11 11 11 10 10 10 11 11 11 11 11 11 11 11 11 11 11 11
16 19 19 16 16 17 16 19 15 16 17 15 15 17 17 15 15 14 13 13 13 13 12 12 10 11 12 12 12 11 11 11 11 11 10 10 9 10 11 11 11 11 11 11 12 12 12 12 12
17 18 18 16 16 18 18 19 14 18 18 18 18 17 17 16 16 13 13 13 13 12 12 12 11 11 11 12 12 11 11 11 11 11 10 10 9 10 11 11 11 11 11 12 12 12 12 13 13
18 19 18 18 16 17 20 20 16 15 18 18 18 19 18 16 13 11 12 12 11 12 12 11 11 11 11 12 12 12 12 12 11 11 10 9 9 10 11 12 12 11 11 12 12 13 13 13 13
19 19 18 17 16 17 18 18 16 15 18 18 17 18 18 16 12 11 12 11 12 12 11 11 11 11 11 12 13 13 13 12 11 11 10 9 9 10 11 12 12 12 12 12 12 13 14 14 14
17 19 19 17 16 17 18 19 17 16 16 16 15 16 16 15 13 13 12 12 12 11 11 11 11 11 11 11 12 12 12 12 11 11 10 9 9 10 10 11 12 12 12 13 13 13 14 14 14
19 18 19 18 17 18 20 19 19 17 17 16 15 15 15 14 14 14 14 13 12 12 11 11 11 10 10 10 11 12 11 12 11 11 11 10 9 9 10 11 12 12 12 13 13 14 14 15 14
19 18 17 18 19 22 20 24 20 17 15 17 16 15 15 15 14 14 14 14 13 12 11 10 10 11 11 11 11 12 11 12 12 11 11 10 9 10 10 11 12 12 12 13 13 13 14 14 16
19 18 18 18 20 21 23 23 21 19 17 15 14 15 16 15 14 14 14 13 12 11 11 10 10 11 11 11 10 11 12 12 12 12 11 10 10 11 11 11 12 12 12 13 13 14 14 14 15
18 18 18 19 21 26 22 22 19 19 18 17 15 15 14 14 15 15 15 14 13 12 11 11 11 11 11 11 11 11 11 12 12 12 11 11 12 12 12 12 12 12 12 13 13 14 14 15 15
20 21 24 27 29 25 23 23 18 18 16 16 15 14 14 15 15 15 16 15 14 13 12 12 12 12 12 11 11 11 11 12 11 11 11 13 13 13 13 12 13 13 13 13 13 14 14 15 15
20 21 24 28 27 24 22 24 21 17 16 15 14 14 14 14 15 15 16 16 15 14 13 13 13 12 12 12 12 11 12 12 12 12 12 12 12 13 12 13 13 13 13 13 13 14 14 15 15
19 21 20 23 27 25 22 21 18 16 16 15 15 15 15 16 14 15 15 15 15 14 14 13 13 12 12 12 12 12 12 13 12 13 13 12 13 12 13 13 13 13 13 13 14 14 15 15 15
19 18 21 23 28 29 23 22 21 17 17 17 16 16 15 16 16 15 15 15 15 14 14 13 12 12 12 12 12 12 12 12 13 13 13 13 13 13 13 13 13 13 13 14 14 15 15 15 15
20 21 21 21 21 24 26 22 18 17 17 17 16 16 17 16 15 15 15 15 15 15 15 14 14 13 13 12 12 13 13 13 13 13 13 13 13 13 12 13 13 13 14 14 14 15 15 15 16
20 20 20 22 24 23 22 22 17 16 16 16 15 15 15 15 16 16 15 15 15 15 15 15 14 14 13 13 13 13 13 13 13 13 13 13 12 12 12 13 13 14 14 14 15 15 15 16 16